Printer-friendly version

IAU Minor Planet Center

Minor Planet Center

MPEC 2008-V07 : 2008 UB202

The following Minor Planet Electronic Circular may be linked-to from your own Web pages, but must not otherwise be redistributed electronically.


Read MPEC 2008-V06 Read MPEC 2008-V08


M.P.E.C. 2008-V07                                Issued 2008 Nov. 3, 14:24 UT

     The Minor Planet Electronic Circulars contain information on unusual
         minor planets and routine data on comets.  They are published
   on behalf of Commission 20 of the International Astronomical Union by the
          Minor Planet Center, Smithsonian Astrophysical Observatory,
                          Cambridge, MA 02138, U.S.A.

             Prepared using the Tamkin Foundation Computer Network

                              MPC@CFA.HARVARD.EDU
          URL http://www.cfa.harvard.edu/iau/mpc.html  ISSN 1523-6714

                                  2008 UB202

Observations:
     K08UK2B* C2008 10 31.21713 01 32 19.68 +14 02 29.7          21.7 V EV007291
     K08UK2B  C2008 10 31.22101 01 32 20.04 +14 02 25.4                 EV007291
     K08UK2B  C2008 10 31.22491 01 32 20.32 +14 02 21.4          21.6 V EV007291
     K08UK2B  C2008 10 31.26825 01 32 23.92 +14 01 34.7          21.5 R EV007H01
     K08UK2B  C2008 10 31.27549 01 32 24.55 +14 01 27.0          21.4 R EV007H01
     K08UK2B  C2008 10 31.28140 01 32 25.17 +14 01 21.4                 EV007291
     K08UK2B  C2008 10 31.28224 01 32 25.13 +14 01 19.7          21.4 R EV007H01
     K08UK2B  C2008 10 31.28527 01 32 25.52 +14 01 17.5                 EV007291
     K08UK2B  C2008 10 31.28927 01 32 25.82 +14 01 13.1                 EV007291
     K08UK2B HC2008 11 01.14741 01 33 49.49 +13 46 03.3                 EV007291
     K08UK2B HC2008 11 01.15233 01 33 49.95 +13 45 57.7                 EV007291
     K08UK2B HC2008 11 01.15623 01 33 50.30 +13 45 54.4                 EV007291
     K08UK2B  C2008 11 02.16179 01 35 26.81 +13 28 22.4                 EV007291
     K08UK2B HC2008 11 02.16562 01 35 27.10 +13 28 18.6                 EV007291
     K08UK2B HC2008 11 02.16978 01 35 27.55 +13 28 14.2                 EV007291
     K08UK2B  C2008 11 03.21956 01 37 08.04 +13 10 14.9          22.0 V EV007291
     K08UK2B  C2008 11 03.22394 01 37 08.42 +13 10 10.5          22.1 V EV007291
     K08UK2B  C2008 11 03.22802 01 37 08.76 +13 10 06.4          21.8 V EV007291

Observer details:
291 LPL/Spacewatch II.  Observers T. H. Bressi, M. T. Read, R. S. McMillan.
    1.8-m f/2.7 reflector + CCD.
H01 Magdalena Ridge Observatory, Socorro.  Observer W. H. Ryan.  2.4-m f/8.9
    reflector + CCD.

Orbital elements:
2008 UB202                                               Earth MOID = 0.2948 AU
Epoch 2008 Nov. 30.0 TT = JDT 2454800.5                 MPC
M  10.33164              (2000.0)            P               Q
n   0.23907326     Peri.  160.57087     +0.91040826     -0.40582205
a   2.5710788      Node   223.64990     +0.36249032     +0.87615330
e   0.4989196      Incl.    6.68954     +0.19939298     +0.26012277
P   4.12           H   23.2           G   0.15           U   8
Residuals in seconds of arc
081031 291  0.0   0.1-    081031 H01  0.0   0.1+    081102 291  0.1+  0.1-
081031 291  0.4+  0.3-    081031 291  0.2+  0.1+    081102 291  0.6-  0.0
081031 291  0.4-  0.2-    081031 291  0.4-  0.0     081102 291  0.7+  0.2-
081031 H01  0.1-  0.1+    081101 291  0.2-  0.4+    081103 291  0.0   0.1-
081031 H01  0.0   0.1+    081101 291  0.2+  0.1-    081103 291  0.0   0.0
081031 291  0.1-  0.1-    081101 291  0.3+  0.6+    081103 291  0.2-  0.0

Ephemeris:
2008 UB202               a,e,i = 2.57, 0.50, 7                   q = 1.2883
Date    TT    R. A. (2000) Decl.     Delta      r     Elong.  Phase     V
2008 10 31    01 31.97   +14 06.5    0.308    1.296   167.9     9.2    21.8
2008 11 01    01 33.57   +13 48.8    0.310    1.297   167.3     9.7    21.9
2008 11 02    01 35.17   +13 31.4    0.313    1.299   166.7    10.1    21.9
2008 11 03    01 36.77   +13 14.2    0.315    1.300   166.1    10.6    21.9
2008 11 04    01 38.38   +12 57.2    0.317    1.301   165.5    11.0    22.0
2008 11 05    01 39.99   +12 40.7    0.320    1.303   164.8    11.5    22.0
2008 11 06    01 41.60   +12 24.4    0.323    1.305   164.1    12.0    22.0
2008 11 07    01 43.21   +12 08.6    0.326    1.306   163.4    12.5    22.1
2008 11 08    01 44.83   +11 53.1    0.329    1.308   162.7    13.0    22.1
2008 11 09    01 46.45   +11 38.1    0.332    1.310   162.0    13.5    22.2
2008 11 10    01 48.07   +11 23.4    0.335    1.312   161.3    14.0    22.2

Timothy B. Spahr             (C) Copyright 2008 MPC           M.P.E.C. 2008-V07

Read MPEC 2008-V06 Read MPEC 2008-V08


Our Web policy. Index to the CBAT/MPC/ICQ pages.


Valid HTML 4.01!